• In Deutschland
  • Länderverzeichnis
  • Für 7 Tage
  • Wassertemperatur
  • Satellitenkarten
  • Wetterkarte
  • Widgets
  • user-avatar
    Anmelden

    Stündliche Wetter Naftalan

    Heute, 26 Juni, Montag

    Zeit Temperatur Niederschläge Wind Luftdruck Luftfeuchtigkeit
    00:00 +26°C° 0 mm 5 m/S 763 mmHg 71%
    01:00 +25°C° 0 mm 5 m/S 763 mmHg 71%
    02:00 +25°C° 0 mm 5 m/S 763 mmHg 71%
    03:00 +25°C° 0 mm 5 m/S 763 mmHg 70%
    04:00 +26°C° 0 mm 5 m/S 764 mmHg 68%
    05:00 +26°C° 0 mm 5 m/S 764 mmHg 66%
    06:00 +27°C° 0 mm 5 m/S 765 mmHg 64%
    07:00 +28°C° 0 mm 5 m/S 765 mmHg 59%
    08:00 +29°C° 0 mm 6 m/S 765 mmHg 53%
    09:00 +32°C° 0 mm 5 m/S 765 mmHg 46%
    10:00 +32°C° 0 mm 6 m/S 765 mmHg 44%
    11:00 +33°C° 0 mm 6 m/S 765 mmHg 42%
    12:00 +34°C° 0 mm 6 m/S 765 mmHg 40%
    13:00 +33°C° 0 mm 6 m/S 765 mmHg 40%
    14:00 +33°C° 0 mm 6 m/S 764 mmHg 41%
    15:00 +33°C° 0 mm 6 m/S 764 mmHg 42%
    16:00 +32°C° 0 mm 6 m/S 764 mmHg 46%
    17:00 +30°C° 0 mm 5 m/S 764 mmHg 50%
    18:00 +29°C° 0 mm 5 m/S 764 mmHg 54%
    19:00 +28°C° 0 mm 5 m/S 765 mmHg 60%
    20:00 +27°C° 0 mm 4 m/S 765 mmHg 66%
    21:00 +26°C° 0 mm 3 m/S 765 mmHg 72%
    22:00 +25°C° 0 mm 3 m/S 765 mmHg 74%
    23:00 +25°C° 0 mm 3 m/S 765 mmHg 76%

    Morgen, 27 Juni, Dienstag

    Zeit Temperatur Niederschläge Wind Luftdruck Luftfeuchtigkeit
    00:00 +24°C° 0 mm 2 m/S 765 mmHg 78%
    01:00 +24°C° 0 mm 2 m/S 765 mmHg 80%
    02:00 +23°C° 0 mm 2 m/S 765 mmHg 81%
    03:00 +23°C° 0 mm 2 m/S 764 mmHg 83%
    04:00 +24°C° 0 mm 2 m/S 764 mmHg 80%
    05:00 +25°C° 0 mm 2 m/S 764 mmHg 76%
    06:00 +26°C° 0 mm 2 m/S 764 mmHg 73%
    07:00 +27°C° 0 mm 2 m/S 764 mmHg 66%
    08:00 +29°C° 0 mm 3 m/S 764 mmHg 59%
    09:00 +30°C° 0 mm 3 m/S 764 mmHg 51%
    10:00 +33°C° 0 mm 3 m/S 763 mmHg 47%
    11:00 +34°C° 0 mm 4 m/S 763 mmHg 43%
    12:00 +35°C° 0 mm 4 m/S 762 mmHg 39%
    13:00 +35°C° 0 mm 4 m/S 762 mmHg 39%
    14:00 +35°C° 0 mm 5 m/S 761 mmHg 38%
    15:00 +35°C° 0 mm 5 m/S 761 mmHg 38%
    16:00 +34°C° 0 mm 5 m/S 761 mmHg 44%
    17:00 +32°C° 0 mm 5 m/S 760 mmHg 49%
    18:00 +30°C° 0 mm 5 m/S 760 mmHg 54%
    19:00 +29°C° 0 mm 5 m/S 760 mmHg 61%
    20:00 +27°C° 0 mm 4 m/S 760 mmHg 68%
    21:00 +26°C° 0 mm 4 m/S 761 mmHg 75%
    22:00 +25°C° 0 mm 3 m/S 760 mmHg 78%
    23:00 +25°C° 0 mm 3 m/S 760 mmHg 81%

    übermorgen, 28 Juni, Mittwoch

    Zeit Temperatur Niederschläge Wind Luftdruck Luftfeuchtigkeit
    00:00 +24°C° 0 mm 2 m/S 760 mmHg 84%
    01:00 +24°C° 0 mm 2 m/S 760 mmHg 85%
    02:00 +24°C° 0 mm 2 m/S 760 mmHg 87%
    03:00 +24°C° 0 mm 2 m/S 760 mmHg 88%
    04:00 +25°C° 0 mm 2 m/S 760 mmHg 84%
    05:00 +26°C° 0 mm 1 m/S 760 mmHg 80%
    06:00 +27°C° 0 mm 1 m/S 760 mmHg 76%
    07:00 +29°C° 0 mm 1 m/S 760 mmHg 67%
    08:00 +31°C° 0 mm 1 m/S 760 mmHg 59%
    09:00 +32°C° 0 mm 1 m/S 760 mmHg 50%
    10:00 +35°C° 0 mm 2 m/S 759 mmHg 45%
    11:00 +36°C° 0 mm 2 m/S 759 mmHg 39%
    12:00 +38°C° 0 mm 3 m/S 759 mmHg 34%
    13:00 +38°C° 0 mm 4 m/S 758 mmHg 32%
    14:00 +38°C° 0 mm 4 m/S 758 mmHg 30%
    15:00 +40°C° 0 mm 5 m/S 757 mmHg 29%
    16:00 +37°C° 0 mm 4 m/S 757 mmHg 31%
    17:00 +36°C° 0 mm 4 m/S 757 mmHg 34%
    18:00 +34°C° 0 mm 4 m/S 757 mmHg 37%
    19:00 +33°C° 0 mm 3 m/S 758 mmHg 44%
    20:00 +30°C° 0 mm 2 m/S 758 mmHg 51%
    21:00 +28°C° 0 mm 2 m/S 758 mmHg 58%
    22:00 +27°C° 0 mm 2 m/S 758 mmHg 59%
    23:00 +27°C° 0 mm 2 m/S 758 mmHg 60%

    29 Juni, Donnerstag

    Zeit Temperatur Niederschläge Wind Luftdruck Luftfeuchtigkeit
    00:00 +26°C° 0 mm 3 m/S 758 mmHg 61%
    01:00 +26°C° 0 mm 3 m/S 758 mmHg 61%
    02:00 +26°C° 0 mm 3 m/S 758 mmHg 61%
    03:00 +25°C° 0 mm 3 m/S 758 mmHg 60%
    04:00 +26°C° 0 mm 3 m/S 758 mmHg 56%
    05:00 +28°C° 0 mm 3 m/S 759 mmHg 51%
    06:00 +29°C° 0 mm 3 m/S 759 mmHg 47%
    07:00 +31°C° 0 mm 3 m/S 759 mmHg 40%
    08:00 +34°C° 0 mm 4 m/S 759 mmHg 32%
    09:00 +36°C° 0 mm 4 m/S 759 mmHg 25%
    10:00 +37°C° 0 mm 4 m/S 759 mmHg 22%
    11:00 +40°C° 0 mm 5 m/S 759 mmHg 20%
    12:00 +41°C° 0 mm 5 m/S 759 mmHg 17%
    13:00 +41°C° 0 mm 5 m/S 758 mmHg 17%
    14:00 +41°C° 0 mm 5 m/S 758 mmHg 17%
    15:00 +41°C° 0 mm 6 m/S 758 mmHg 16%
    16:00 +39°C° 0 mm 5 m/S 758 mmHg 19%
    17:00 +37°C° 0 mm 5 m/S 758 mmHg 21%
    18:00 +36°C° 0 mm 4 m/S 758 mmHg 23%
    19:00 +33°C° 0 mm 4 m/S 758 mmHg 30%
    20:00 +30°C° 0 mm 3 m/S 758 mmHg 36%
    21:00 +28°C° 0 mm 2 m/S 759 mmHg 43%
    22:00 +27°C° 0 mm 2 m/S 758 mmHg 45%
    23:00 +26°C° 0 mm 2 m/S 758 mmHg 47%

    30 Juni, Freitag

    Zeit Temperatur Niederschläge Wind Luftdruck Luftfeuchtigkeit
    00:00 +26°C° 0 mm 2 m/S 758 mmHg 49%
    01:00 +25°C° 0 mm 2 m/S 758 mmHg 49%
    02:00 +25°C° 0 mm 3 m/S 758 mmHg 50%
    03:00 +24°C° 0 mm 3 m/S 758 mmHg 50%
    04:00 +26°C° 0 mm 3 m/S 758 mmHg 45%
    05:00 +27°C° 0 mm 4 m/S 758 mmHg 39%
    06:00 +29°C° 0 mm 4 m/S 758 mmHg 34%
    07:00 +32°C° 0 mm 4 m/S 758 mmHg 29%
    08:00 +34°C° 0 mm 5 m/S 759 mmHg 25%
    09:00 +36°C° 0 mm 5 m/S 759 mmHg 20%
    10:00 +39°C° 0 mm 6 m/S 759 mmHg 19%
    11:00 +40°C° 0 mm 6 m/S 758 mmHg 18%
    12:00 +41°C° 0 mm 7 m/S 758 mmHg 18%
    13:00 +41°C° 0 mm 8 m/S 758 mmHg 18%
    14:00 +41°C° 0 mm 8 m/S 758 mmHg 19%
    15:00 +40°C° 0 mm 9 m/S 758 mmHg 20%
    16:00 +39°C° 0 mm 9 m/S 758 mmHg 22%
    17:00 +38°C° 0 mm 8 m/S 758 mmHg 25%
    18:00 +35°C° 0 mm 8 m/S 759 mmHg 28%
    19:00 +33°C° 0 mm 7 m/S 759 mmHg 32%
    20:00 +32°C° 0 mm 7 m/S 760 mmHg 36%
    21:00 +29°C° 0 mm 7 m/S 760 mmHg 41%
    22:00 +28°C° 0 mm 6 m/S 760 mmHg 43%
    23:00 +27°C° 0 mm 6 m/S 760 mmHg 44%

    1 Juli, Samstag

    Zeit Temperatur Niederschläge Wind Luftdruck Luftfeuchtigkeit
    00:00 +27°C° 0 mm 5 m/S 760 mmHg 46%
    01:00 +26°C° 0 mm 5 m/S 760 mmHg 46%
    02:00 +26°C° 0 mm 5 m/S 760 mmHg 46%
    03:00 +26°C° 0 mm 5 m/S 760 mmHg 45%
    04:00 +27°C° 0 mm 5 m/S 760 mmHg 42%
    05:00 +27°C° 0 mm 5 m/S 761 mmHg 39%
    06:00 +28°C° 0 mm 5 m/S 761 mmHg 36%
    07:00 +32°C° 0 mm 5 m/S 761 mmHg 32%
    08:00 +34°C° 0 mm 6 m/S 761 mmHg 28%
    09:00 +36°C° 0 mm 6 m/S 762 mmHg 24%
    10:00 +39°C° 0 mm 7 m/S 761 mmHg 22%
    11:00 +40°C° 0 mm 7 m/S 761 mmHg 20%
    12:00 +41°C° 0 mm 8 m/S 761 mmHg 18%
    13:00 +41°C° 0 mm 8 m/S 761 mmHg 18%
    14:00 +40°C° 0 mm 8 m/S 761 mmHg 19%
    15:00 +40°C° 0 mm 8 m/S 761 mmHg 19%
    16:00 +39°C° 0 mm 7 m/S 761 mmHg 22%
    17:00 +38°C° 0 mm 6 m/S 761 mmHg 26%
    18:00 +35°C° 0 mm 5 m/S 761 mmHg 29%
    19:00 +33°C° 0 mm 4 m/S 761 mmHg 37%
    20:00 +30°C° 0 mm 3 m/S 762 mmHg 45%
    21:00 +28°C° 0 mm 3 m/S 762 mmHg 52%
    22:00 +27°C° 0 mm 2 m/S 762 mmHg 54%
    23:00 +26°C° 0 mm 2 m/S 762 mmHg 57%
    Mehr zeigen